Location: Hard
(49.9417°N, 12.0858°E)
Time: 08:07:35
(UTC+00:00)

IRAS Rocket - Pass Details

Date: 07 June 2020
Orbit: 847 x 878 km, 100.1° (Epoch: 12 July)

Event Time Altitude Azimuth Distance (km) Brightness Sun altitude
Exits shadow 00:17:59 21° 171° (S) 1,843 5.4 -15.8°
Maximum altitude 00:21:48 75° 254° (WSW) 891 4.2 -15.6°
Drops below altitude 10° 00:27:21 10° 340° (NNW) 2,497 7.4 -15.3°
Sets 00:29:44 0° 342° (NNW) 3,434 8.3 -15.2°
